This demonstration page uses our WeatherBlox Daily Observations layout. Learn more.

Left ArrowRight Arrow

Hourly Observations for March 15, 2020

Temp ( °F °C ) Dew Point ( °F °C ) Humidity (%) Winds ( mph kmh ) Pressure ( in mb ) Visibility ( mi km ) Precip ( " mm )
12:02 am 00:02 Cloudy with Light Snow 6 -14.4 1 -17.2 79 79 SW 13 20 30.72 1040 4 6 0.00 0.00
12:53 am 00:53 Cloudy with Light Snow 5 -15 N/A 79 79 W 13 20 30.61 1037 6 10 0.00 0.00
1:09 am 01:09 Cloudy with Light Snow 4 -15.6 -1 -18.3 80 80 SW 15 24 30.74 1041 7 11 0.00 0.00
1:53 am 01:53 Cloudy 5 -15 N/A 79 79 WSW 10 17 30.63 1037 10 16 0.00 0.00
2:40 am 02:40 Cloudy 7 -14 N/A 72 72 W 21 33 30.72 1040 10 16 N/A
2:53 am 02:53 Cloudy 6 -14.4 N/A 76 76 W 18 30 30.62 1037 10 16 N/A
3:06 am 03:06 Cloudy 7 -14 N/A 72 72 W 17 28 30.71 1040 10 16 N/A
3:16 am 03:16 Cloudy 6 -14.4 N/A 76 76 W 17 28 30.72 1040 10 16 N/A
3:53 am 03:53 Cloudy 6 -14.4 N/A 76 76 W 17 28 30.62 1037 10 16 N/A
4:10 am 04:10 Cloudy 5 -15 N/A 78 78 W 18 30 30.72 1040 10 16 N/A
4:40 am 04:40 Cloudy 5 -15 N/A 78 78 W 21 33 30.71 1040 10 16 N/A
4:53 am 04:53 Cloudy 5 -15 -1 -18.3 76 76 W 16 26 30.61 1037 10 16 N/A
5:11 am 05:11 Cloudy 5 -15 -1 -18.3 76 76 W 17 28 30.71 1040 10 16 N/A
5:53 am 05:53 Cloudy 2 -16.7 -3 -19.4 80 80 WSW 16 26 30.63 1037 8 13 N/A
6:53 am 06:53 Cloudy with Haze 3 -16.1 -2 -18.9 79 79 SW 16 26 30.61 1037 5 8 N/A
7:53 am 07:53 Cloudy 3 -16.1 -2 -18.9 79 79 WSW 15 24 30.63 1037 8 13 N/A
8:53 am 08:53 Cloudy 5 -15 -1 -18.3 76 76 W 14 22 30.61 1037 8 13 N/A
9:53 am 09:53 Cloudy 5 -15 -2 -18.9 72 72 WNW 15 24 30.61 1037 10 16 N/A
10:53 am 10:53 Cloudy 6 -14.4 -1 -18.3 73 73 W 17 28 30.60 1036 10 16 0.00 0.00
11:30 am 11:30 Cloudy with Haze 7 -14 N/A 72 72 W 17 28 30.68 1039 3 4 N/A
11:38 am 11:38 Cloudy 7 -14 N/A 72 72 W 15 24 30.68 1039 8 13 N/A
11:53 am 11:53 Cloudy 7 -13.9 -1 -18.3 70 70 W 16 26 30.60 1036 10 16 N/A
12:53 pm 12:53 Cloudy 8 -13.3 N/A 69 69 W 15 24 30.58 1036 10 16 N/A
1:53 pm 13:53 Cloudy 9 -12.8 1 -17.2 70 70 W 12 19 30.56 1035 10 16 N/A
2:53 pm 14:53 Cloudy 9 -12.8 2 -16.7 73 73 W 12 19 30.53 1034 10 16 N/A
3:53 pm 15:53 Cloudy with Haze 9 -12.8 3 -16.1 77 77 WSW 9 15 30.52 1034 5 8 N/A
4:53 pm 16:53 Cloudy 10 -12.2 2 -16.7 69 69 WSW 9 15 30.51 1033 10 16 N/A
5:53 pm 17:53 Cloudy 10 -12.2 3 -16.1 73 73 W 12 19 30.53 1034 10 16 N/A
6:53 pm 18:53 Cloudy 10 -12.2 4 -15.6 76 76 WNW 8 13 30.54 1034 10 16 N/A
7:53 pm 19:53 Cloudy 10 -12.2 3 -16.1 73 73 WNW 7 11 30.54 1034 10 16 N/A
8:53 pm 20:53 Cloudy 10 -12.2 3 -16.1 73 73 W 8 13 30.55 1034 10 16 N/A
9:53 pm 21:53 Cloudy 10 -12.2 3 -16.1 73 73 W 7 11 30.54 1034 10 16 N/A
10:53 pm 22:53 Cloudy 10 -12.2 4 -15.6 76 76 W 7 11 30.54 1034 10 16 N/A
11:53 pm 23:53 Cloudy 10 -12.2 3 -16.1 73 73 W 12 19 30.55 1034 10 16 N/A

Powered by AerisWeather